Regional Weather Roundup
Issued by NWS Cleveland, OH

Home | Current Version | Previous Version | Graphics & Text | Print | Product List | Glossary On
Versions: 1 2 3 4 5 6 7 8 9 10 11 12 13 14 15 16 17 18 19 20 21 22 23 24 25 26 27 28 29 30 31 32 33 34 35 36 37 38 39 40 41 42 43 44 45 46 47 48 49 50
042
ASUS41 KCLE 111410
RWRCLE
OHIO REGIONAL WEATHER ROUNDUP
NATIONAL WEATHER SERVICE WILMINGTON, OH
900 AM EST THU FEB 11 2016

NOTE: "FAIR" INDICATES FEW OR NO CLOUDS BELOW 12,000 FEET WITH NO
SIGNIFICANT WEATHER AND/OR OBSTRUCTIONS TO VISIBILITY.

OHZ001>008-015>018-024>027-034-035-043-044-111500-
   NORTHWEST OHIO

CITY           SKY/WX    TMP DP  RH WIND       PRES   REMARKS
DEFIANCE       CLOUDY    17   8  67 W7        30.22R WCI   8
FINDLAY        CLOUDY    15  10  80 W7        30.19R WCI   5
TOLEDO EXPRESS CLOUDY    15   7  70 W10       30.19R WCI   2
TOLEDO EXEC    CLOUDY    17   6  62 W12       30.20R WCI   4
LIMA           CLOUDY    15  10  80 W9        30.19R WCI   3
$$

OHZ009>014-019>023-028>033-038-089-111500-
   NORTHEAST OHIO

CITY           SKY/WX    TMP DP  RH WIND       PRES   REMARKS
CLE-HOPKINS    CLOUDY    16   2  54 NW10      30.16R WCI   4
CLE-LAKEFRONT  CLOUDY    18   4  54 NW25      30.13R WCI   0
CUY CO. ARPT   CLOUDY    16   5  62 NW16G28   30.11R WCI   0
LORAIN-ELYRIA  FLURRIES  13   5  70 W10       30.15R WCI   0
ASHTABULA      CLOUDY    13   3  64 NW16G22   30.08R WCI  -3
AKRON-CANTON   LGT SNOW  11   5  77 W12       30.11R WCI  -3
WOOSTER        LGT SNOW  10   4  76 W10       30.13R WCI  -4
MANSFIELD      CLOUDY    10   5  80 W7        30.14R WCI  -1
YOUNGSTOWN     FLURRIES  13   3  64 W10       30.06R WCI   0
$$

OHZ042-051>053-060>062-070>072-077>081-111500-
  SOUTHWEST OHIO

CITY           SKY/WX    TMP DP  RH WIND       PRES   REMARKS
CINC-COVINGTON FAIR      14   7  73 CALM      30.25R
CINC-LUNKEN    FAIR      17   6  62 W5        30.30R WCI  10
HAMILTON       FAIR      15   8  73 W5        30.29R WCI   8
DAYTON         PTSUNNY   11   5  77 NW7       30.23R WCI   0
WRIGHT-PAT AFB PTSUNNY    9   5  83 S6        30.24R WCI  -1
DAYTON GENERAL FAIR      12   5  73 CALM      30.23R
WILMINGTON     FAIR      10   5  80 W6        30.22R WCI   0
$$

OHZ036-037-039>041-045>050-054>059-063>069-073>076-082>088-111500-
  CENTRAL AND SOUTHEAST OHIO

CITY           SKY/WX    TMP DP  RH WIND       PRES   REMARKS
COLUMBUS       CLOUDY    12   4  70 W6        30.22R WCI   3
OSU AIRPORT    CLOUDY    12   6  77 W7        30.21R WCI   1
BOLTON FIELD   CLOUDY    10   7  85 W5        30.22R WCI   2
RICKENBACK AFB CLOUDY     7   3  82 SW5       30.23R WCI  -2
NEWARK         CLOUDY    10   4  76 MISG      30.21R
MARION         CLOUDY    14   7  73 W10       30.19R WCI   1
LANCASTER      CLOUDY    11   4  73 W6        30.23R WCI   1
ZANESVILLE     CLOUDY    11   4  73 W7        30.21R WCI   0
NEW PHILLY     CLOUDY    12   5  73 VRB7      30.18R WCI   1
$$




USA.gov is the U.S. government's official web portal to all federal, state and local government web resources and services.